Location: Bruderhein
(53.8035°N, 112.9265°W)
Time: 11:55:09
(UTC+00:00)

KKS-1 - Pass Details

Date: 09 April 2023
Orbit: 633 x 644 km, 98.2° (Epoch: 30 May)

Event Time Altitude Azimuth Distance (km) Brightness Sun altitude
Rises 05:54:38 0° 18° (NNE) 2,945 ? -25.3°
Reaches altitude 10° 05:56:54 10° 24° (NNE) 2,032 ? -25.4°
Enters shadow 06:00:01 39° 53° (NE) 968 ? -25.6°
